Home > Weather > Managua > Past weeks

Flag for Nicaragua Weather for the Past 2 Weeks in Managua, Nicaragua

Now
72 °F

Passing clouds.


Feels Like: 71 °F
Forecast: 73 / 89 °F
Wind: No wind

Location: Managua A. C. Sandino

Current Time: Feb 8, 2016 at 5:16:35 AM

Latest Report: Feb 8, 2016 at 4:00 AM


Visibility: N/A

Pressure: 29.86 "Hg

Humidity: 83%

Dew point: 66 °F

Location of ManaguaLocation

Historic Weather in Managua — Graph

°F

Managua Temperature Yesterday

Maximum temperature yesterday: 91 °F (at 2:00 PM)
Minimum temperature yesterday: 70 °F (at 6:00 AM)
Average temperature yesterday: 80 °F

High & Low Weather Summary for the Past Weeks

 TemperatureHumidityPressure
High95 °F (Feb 4, 2:00 PM)94% (Jan 30, 4:00 AM)29.98 "Hg (Jan 30, 4:00 AM)
Low68 °F (Jan 24, 5:00 AM)32% (Jan 24, 1:00 PM)29.74 "Hg (Jan 27, 4:00 PM)
Average82 °F64%29.87 "Hg
* Reported Jan 24 4:00 AM — Feb 8 4:00 AM, Managua, Weather by CustomWeather, © 2016

Note: Actual official high and low records may vary slightly from our data, if they occured in-between our weather recording intervals... More about our weather records

Advertising

Managua Weather History for the Previous 24 Hours

 ConditionsComfort  
Time TempWeatherWind HumidityBarometerVisibility
4:00 AM
Mon, Feb 8
72 °FPassing clouds.No wind83%29.86 "HgN/A
3:00 AM72 °FPassing clouds.No wind78%29.86 "HgN/A
2:00 AM72 °FPassing clouds.No wind78%29.89 "HgN/A
1:00 AM73 °FPassing clouds.No wind83%29.89 "HgN/A
12:00 AM73 °FPassing clouds.9 mph83%29.92 "HgN/A
11:00 PM
Sun, Feb 7
75 °FPassing clouds.14 mph78%29.95 "HgN/A
10:00 PM75 °FPassing clouds.12 mph83%29.95 "HgN/A
9:00 PM77 °FPassing clouds.12 mph79%29.92 "HgN/A
8:00 PM79 °FPassing clouds.9 mph74%29.89 "HgN/A
7:00 PM81 °FPassing clouds.14 mph70%29.86 "HgN/A
6:00 PM82 °FPassing clouds.14 mph66%29.83 "HgN/A
5:00 PM84 °FScattered clouds.16 mph55%29.83 "HgN/A
4:00 PM88 °FScattered clouds.25 mph49%29.80 "HgN/A
3:00 PM90 °FScattered clouds.18 mph46%29.80 "HgN/A
2:00 PM91 °FScattered clouds.18 mph44%29.80 "HgN/A
1:00 PM90 °FScattered clouds.18 mph49%29.83 "HgN/A
12:00 PM90 °FPassing clouds.21 mph49%29.86 "HgN/A
11:00 AM88 °FPassing clouds.16 mph52%29.92 "HgN/A
10:00 AM86 °FPassing clouds.21 mph52%29.92 "HgN/A
9:00 AM84 °FPassing clouds.16 mph55%29.92 "HgN/A
8:00 AM79 °FPassing clouds.9 mph65%29.92 "HgN/A
7:00 AM73 °FPassing clouds.7 mph74%29.92 "HgN/A
6:00 AM70 °FPassing clouds.No wind83%29.92 "HgN/A
5:00 AM72 °FPassing clouds.5 mph83%29.89 "HgN/A
Weather by CustomWeather, © 2016

See weather overviewHow to use our weather pages